Tracking 34352 objects as of 8-Jun-2026
HD Live streaming from Space Station
objects crossing your sky now

TDRS 10

Track TDRS 10 now!
TDRS 10 is classified as:


NORAD ID: 27566
Int'l Code: 2002-055A
Perigee: 36,145.4 km
Apogee: 36,242.2 km
Inclination: 10.1 °
Period: 1,456.6 minutes
Semi major axis: 42564 km
RCS: 5.0118 m2 (large)
Launch date: December 5, 2002
Source: United States (US)
Launch site: AIR FORCE EASTERN TEST RANGE (AFETR)

Tracking and communications with space shuttle, other missions.
Your satellite tracking list
Your tracking list is empty




NASA's NSSDC Master Catalog

Two Line Element Set (TLE):
1 27566U 02055A   26159.07983464 -.00000103  00000-0  00000-0 0  9997
2 27566  10.0725  43.1206 0011380 249.8595  99.3039  0.98861489 86105
Source of the keplerian elements: AFSPC